This demonstration page uses our WeatherBlox Daily Observations layout. Learn more.

Left ArrowRight Arrow

Hourly Observations for February 9, 2022

Temp ( °F °C ) Dew Point ( °F °C ) Humidity (%) Winds ( mph kmh ) Pressure ( in mb ) Visibility ( mi km ) Precip ( " mm )
12:53 am 00:53 Clear 35 1.7 26 -3.3 70 70 SW 12 19 30.14 1021 10 16 0.00 0.00
1:53 am 01:53 Partly Cloudy 34 1.1 26 -3.3 73 73 SW 14 22 30.13 1020 10 16 0.00 0.00
2:53 am 02:53 Clear 32 0 25 -3.9 75 75 SW 14 22 30.12 1020 10 16 0.00 0.00
3:53 am 03:53 Mostly Clear 31 -0.6 24 -4.4 76 76 SW 12 19 30.12 1020 10 16 0.00 0.00
4:53 am 04:53 Clear 29 -1.7 23 -5 78 78 SW 9 15 30.11 1020 10 16 0.00 0.00
5:53 am 05:53 Mostly Clear 34 1.1 25 -3.9 70 70 SW 12 19 30.10 1019 10 16 0.00 0.00
6:53 am 06:53 Cloudy 37 2.8 26 -3.3 65 65 SW 20 31 30.08 1019 10 16 0.00 0.00
7:53 am 07:53 Sunny 37 2.8 26 -3.3 65 65 SW 18 30 30.08 1019 10 16 0.00 0.00
8:53 am 08:53 Partly Cloudy 39 3.9 26 -3.3 60 60 SW 21 33 30.12 1020 10 16 0.00 0.00
9:53 am 09:53 Cloudy 41 5 28 -2.2 60 60 SW 17 28 30.11 1020 10 16 0.00 0.00
10:53 am 10:53 Mostly Sunny 49 9.4 28 -2.2 44 44 NW 20 31 30.13 1020 10 16 0.00 0.00
11:00 am 11:00 Mostly Sunny 48 9 28 -2 46 46 NW 16 26 30.10 1019 10 16 0.00 0.00
11:53 am 11:53 Cloudy 51 10.6 28 -2.2 41 41 NW 16 26 30.15 1021 10 16 0.00 0.00
12:53 pm 12:53 Cloudy 52 11.1 28 -2.2 40 40 NW 14 22 30.14 1021 10 16 0.00 0.00
1:53 pm 13:53 Cloudy 52 11.1 27 -2.8 38 38 NW 14 22 30.13 1020 10 16 0.00 0.00
2:53 pm 14:53 Cloudy 54 12.2 28 -2.2 37 37 NNW 10 17 30.13 1020 10 16 0.00 0.00
3:53 pm 15:53 Partly Cloudy 53 11.7 28 -2.2 38 38 NNW 9 15 30.13 1020 10 16 0.00 0.00
4:53 pm 16:53 Sunny 50 10 28 -2.2 43 43 Calm 30.11 1020 10 16 0.00 0.00
5:53 pm 17:53 Clear 37 2.8 25 -3.9 62 62 S 7 11 30.09 1019 10 16 0.00 0.00
6:53 pm 18:53 Clear 44 6.7 28 -2.2 53 53 W 12 19 30.09 1019 10 16 0.00 0.00
7:53 pm 19:53 Clear 43 6.1 28 -2.2 56 56 WSW 17 28 30.07 1018 10 16 0.00 0.00
8:53 pm 20:53 Clear 40 4.4 28 -2.2 63 63 SW 16 26 30.04 1017 10 16 0.00 0.00
9:53 pm 21:53 Clear 41 5 29 -1.7 62 62 SW 22 35 30.00 1016 10 16 0.00 0.00
10:53 pm 22:53 Partly Cloudy 41 5 29 -1.7 62 62 SW 21 33 29.96 1015 10 16 0.00 0.00
11:53 pm 23:53 Mostly Clear 43 6.1 29 -1.7 58 58 SW 23 37 29.94 1014 10 16 0.00 0.00

Powered by AerisWeather